Regional Weather Roundup
Issued by NWS

Home | Current Version | Previous Version | Text Only | Print | Product List | Glossary Off
Versions: 1 2 3 4 5 6 7 8 9 10 11 12 13 14 15 16 17 18 19 20 21 22 23 24 25 26 27 28 29 30 31 32 33 34 35 36 37 38 39 40 41 42 43 44 45 46 47 48 49 50

000
ASUS43 KMKX 092111
RWRWI

WISCONSIN REGIONAL WEATHER ROUNDUP
NATIONAL WEATHER SERVICE MILWAUKEE/SULLIVAN WI
300 PM CST FRI DEC 09 2016

NOTE: "FAIR" INDICATES FEW OR NO CLOUDS BELOW 12,000 FEET WITH NO
SIGNIFICANT WEATHER AND/OR OBSTRUCTIONS TO VISIBILITY.

WIZ001-002-006>008-014>016-023>028-092200-
NORTHWEST WISCONSIN

CITY           SKY/WX    TMP DP  RH WIND       PRES   REMARKS
SUPERIOR ARPT  CLOUDY    13   2  62 NW10      30.50S WCI   0
ASHLAND        CLOUDY    15   3  59 W13       30.46S WCI   1
HAYWARD        CLOUDY    15   6  67 W5        30.43S WCI   8
SIREN          CLOUDY    17   7  65 W7        30.46S WCI   7
CUMBERLAND     LGT SNOW  18  12  79 W7        30.43S WCI   8
RICE LAKE      CLOUDY    18  10  73 SW7       30.46F WCI   8
CHETEK         FLURRIES  18  10  73 W7        30.46S WCI   8
LADYSMITH      CLOUDY    18  11  72 W10       30.44S WCI   7
EAU CLAIRE     FLURRIES  18  11  74 W13       30.47F WCI   5
MENOMONIE      FLURRIES  19  11  71 SW9       30.48S WCI   7
NEW RICHMOND   LGT SNOW  18  10  71 W8        30.47S WCI   8
OSCEOLA        CLOUDY    19   9  67 W8        30.51S WCI   9
$$

WIZ003>005-009-010-017-018-092200-
NORTH CENTRAL WISCONSIN

CITY           SKY/WX    TMP DP  RH WIND       PRES   REMARKS
MANITOWISH WTR CLOUDY    13   5  70 W7        30.37S WCI   3
ARBOR VITAE    CLOUDY    17   8  67 NW6       30.37R WCI   8
WOODRUFF       CLOUDY    17   8  67 NW6       30.37R WCI   8
RHINELANDER    CLOUDY    16   5  62 NW9       30.38R WCI   4
EAGLE RIVER    CLOUDY    14   5  66 W12       30.36R WCI   1
LAND O LAKES   CLOUDY    15   7  71 NW8       30.37R WCI   4
PHILLIPS       CLOUDY    15   7  68 W6        30.39R WCI   7
TOMAHAWK       CLOUDY    16   7  66 W8        30.40R WCI   5
MEDFORD        LGT SNOW  16  10  77 SW9       30.40S WCI   4
MERRILL        CLOUDY    18   6  59 NW12      30.42R WCI   5
$$

WIZ029-030-035-036-043>047-092200-
CENTRAL WISCONSIN

CITY           SKY/WX    TMP DP  RH WIND       PRES   REMARKS
WAUSAU         CLOUDY    19   6  57 W14G24    30.41R WCI   6
MOSINEE        MOCLDY    18   9  68 NW12      30.43R WCI   5
MARSHFIELD     CLOUDY    17   8  67 W6        30.42S WCI   9
STEVENS POINT  CLEAR     18   6  58 NW5       30.45R WCI  11
WAUPACA        CLEAR     24   9  51 W13       30.46R WCI  13
WAUTOMA        MOSUNNY   21   8  57 W8        30.47R WCI  11
WISC RAPIDS    SUNNY     21   8  57 NW8       30.46R WCI  11
CAMP DOUGLAS   SUNNY     23   8  52 W8        30.47S WCI  14
$$

WIZ011>013-019>022-031-037>040-048>050-092200-
NORTHEAST WISCONSIN

CITY           SKY/WX    TMP DP  RH WIND       PRES   REMARKS
ANTIGO         CLOUDY    17   7  65 NW12      30.38R WCI   4
SHAWANO        PTCLDY    24   9  52 NW7       30.43R WCI  16
OCONTO         CLOUDY    24   8  51 W14       30.41R WCI  11
STURGEON BAY   FLURRIES  25  10  53 W10G16    30.39R WCI  15
GREEN BAY      MOCLDY    26  11  52 NW7       30.42R WCI  18
MANITOWOC      CLOUDY    25   9  50 NW16      30.43R WCI  12
APPLETON       PTCLDY    25   7  46 W14G21    30.41R WCI  13
CLINTONVILLE   PTCLDY    23   7  50 NW14      30.43R WCI  11
OSHKOSH        CLEAR     24   9  52 W12       30.44R WCI  13
$$

WIZ032>034-041-042-053>061-092200-
SOUTHWEST WISCONSIN

CITY           SKY/WX    TMP DP  RH WIND       PRES   REMARKS
LA CROSSE      SUNNY     24  10  55 W10       30.50F WCI  14
SPARTA         PTSUNNY   24  12  58 W7        30.48F WCI  16
VIROQUA        SUNNY     20  10  65 W5        30.46S WCI  14
BOSCOBEL       SUNNY     25  10  53 W7        30.51F WCI  17
PRAIRIE DU CHI SUNNY     23  11  61 W6        30.53S WCI  15
PLATTEVILLE    SUNNY     22  14  71 NW6       30.49S WCI  14
$$

WIZ056-057-062-063-064-067-068-092200-
SOUTH CENTRAL WISCONSIN

CITY           SKY/WX    TMP DP  RH WIND       PRES   REMARKS
REEDSBURG      MOSUNNY   23   9  55 W8        30.47S WCI  14
BARABOO/DELLS  SUNNY     23   8  53 W7        30.46S WCI  14
LONE ROCK      SUNNY     25  11  55 W8        30.50S WCI  16
MINERAL POINT  SUNNY     23  14  68 W8        30.47S WCI  14
MADISON        MOSUNNY   23   9  55 W5        30.48R WCI  17
MIDDLETON      SUNNY     26  13  57 NW7       30.47S WCI  19
WATERTOWN      SUNNY     23  11  61 W10       30.47S WCI  12
MONROE         SUNNY     23  14  68 W8        30.47S WCI  14
JANESVILLE     MOSUNNY   25  14  63 W8        30.48S WCI  16
$$

WIZ051-052-058>065-066-070>072-092200-
SOUTHEAST WISCONSIN

CITY           SKY/WX    TMP DP  RH WIND       PRES   REMARKS
MILWAUKEE      MOSUNNY   27   7  42 NW13      30.46S WCI  16
WAUKESHA       MOSUNNY   23  10  58 W14       30.46S WCI  11
MILWAUKEE/TIMM SUNNY     25   5  42 W16       30.47R WCI  12
RACINE         MOSUNNY   27   6  41 NW13      30.48R WCI  16
BURLINGTON     SUNNY     30  16  56 W10       30.48R WCI  21
KENOSHA        MOSUNNY   26   9  48 NW10      30.47R WCI  16
FOND DU LAC    CLEAR     24   7  48 W15       30.45R WCI  11
SHEBOYGAN      MOCLDY    25   9  50 W16       30.43S WCI  12
WEST BEND      SUNNY     23  10  58 W15       30.44R WCI  10
JUNEAU         SUNNY     22   8  54 W8        30.47R WCI  13
$$

LSZ147-162-092200-
LAKE SUPERIOR

STATION/POSITION TIME  TEMP    WIND        PRES    WAVE
                       AIR SEA DIR/SP/G            HT/PER
                 (UTC) (F)     (DEG/KT/KT) (MB)    (FT/S)
DEVILS ISLAND    2100   15     260/ 15/ 19 1032.5R
PORT WING        2040   16     280/ 14/ 20 1031.8S
SAXON HARBOR     2040   17     250/  6/ 10 1031.2R
$$

LMZ867-665-643>646-092200-
LAKE MICHIGAN

STATION/POSITION TIME  TEMP    WIND        PRES    WAVE
                       AIR SEA DIR/SP/G            HT/PER
                 (UTC) (F)     (DEG/KT/KT) (MB)    (FT/S)
CHAMBERS ISLAND  2040   26     260/  7/ 14 1028.1R
NORTHPORT PIER   2049   26     300/  8/ 16 1028.1R
SISTER BAY       2050   26     320/ 19/ 21   N/A
ALGOMA LAKESHORE 2036          300/  6/ 10   N/A
KEWAUNEE LAKESHO 2048   24     290/  9/ 15 1029.1R
SHEBOYGAN LAKESH 2100   24     290/ 14/ 19 1031.6R
PORT WASHINGTON  2040   25     290/ 10/ 18 1032.2R
MILWAUKEE LAKESH 2050   25     290/ 12/ 16   N/A
KENOSHA   LAKESH 2100   26     280/  8/ 15 1031.8
$$

TC  - TEMPERATURE IN CELSIUS
VSB - VISIBILITY IN STATUTE MILES
WCI - WIND CHILL INDEX
HX  - HEAT INDEX




USA.gov is the U.S. government's official web portal to all federal, state and local government web resources and services.